STARLINK-36862

Last updated on Mon Mar 30 2026 00:02:05 GMT+0000 (Coordinated Universal Time)

1 68003U 26039T 26088.16668981 .00025717 00000+0 91741-3 0 9992 2 68003 42.9994 299.4286 0001475 265.0033 195.9694 15.28406212 6002
UTC large
Height (km)
Speed (km/s)
/
Latitude / Longitude
Inclination (degrees)
Orbital Period (minutes)
Azimuth
Elevation
Range (km)
Doppler Factor

Next 0 passes for location: London (51.5072 / 0.1276)

Sorry there are no passes over London.